GW3250 Weather Reports


Display with metric or nautical units.
time (UTC)temp
F
wind
direction
speed
MPH
gust
MPH
rain 1hr
in
rain 24hr
in
rain mn
in
humidity
%
barometer
mb
20260508161638 52 100 2.0 3.0 0.00 0.08 0.08 65 1008.7
20260508161135 53 104 0.0 1.0 0.00 0.08 0.08 61 1009.0
20260508160634 53 214 3.0 3.0 0.00 0.08 0.08 64 1008.7
20260508160131 53 221 2.0 3.0 0.00 0.08 0.08 59 1009.1
20260508155628 55 119 4.0 6.0 0.00 0.08 0.08 58 1008.8
20260508155124 54 150 1.0 1.0 0.00 0.08 0.08 63 1009.2
20260508154621 51 242 3.0 4.0 0.00 0.08 0.08 64 1009.1
20260508154118 49 218 3.0 4.0 0.00 0.08 0.08 71 1009.2
20260508153615 49 248 4.0 7.0 0.00 0.08 0.08 64 1009.4
20260508153112 50 112 3.0 4.0 0.00 0.08 0.08 64 1009.1
20260508152609 51 345 1.0 3.0 0.00 0.08 0.08 62 1009.0
20260508152104 53 195 3.0 3.0 0.00 0.08 0.08 63 1009.1
20260508151601 53 226 2.0 2.0 0.00 0.08 0.08 62 1009.0
20260508151058 53 203 1.0 2.0 0.00 0.08 0.08 60 1009.1
20260508150555 52 207 2.0 3.0 0.00 0.08 0.08 68 1009.2
20260508150050 51 213 3.0 4.0 0.00 0.08 0.08 63 1009.2
20260508145542 51 246 3.0 3.0 0.00 0.08 0.08 69 1009.1
20260508145038 51 176 1.0 2.0 0.00 0.08 0.08 67 1009.3
20260508144536 50 218 2.0 2.0 0.00 0.08 0.08 66 1009.3
20260508144033 50 174 2.0 2.0 0.00 0.08 0.08 69 1009.2
20260508143531 48 226 3.0 3.0 0.00 0.08 0.08 75 1009.4
20260508143026 48 183 1.0 1.0 0.00 0.08 0.08 77 1009.3
20260508142518 49 173 3.0 3.0 0.00 0.08 0.08 73 1009.4
20260508142015 51 207 2.0 2.0 0.00 0.08 0.08 70 1009.3
20260508141511 50 25 1.0 1.0 0.00 0.08 0.08 74 1009.4
20260508141009 51 178 2.0 2.0 0.00 0.08 0.08 71 1009.5
20260508140506 49 235 3.0 3.0 0.00 0.08 0.08 75 1009.3
20260508140002 49 198 2.0 2.0 0.00 0.08 0.08 74 1009.3
20260508135458 49 82 0.0 1.0 0.00 0.08 0.08 71 1009.3
20260508134955 50 53 1.0 1.0 0.00 0.08 0.08 74 1009.4
20260508134451 48 195 0.0 0.0 0.00 0.08 0.08 76 1009.7
20260508133948 47 224 1.0 1.0 0.00 0.08 0.08 85 1009.6
20260508133445 46 203 3.0 3.0 0.00 0.08 0.08 84 1009.7
20260508132942 47 210 0.0 0.0 0.00 0.08 0.08 83 1009.6
20260508132440 46 232 2.0 2.0 0.00 0.08 0.08 84 1009.6
20260508131937 46 35 1.0 2.0 0.00 0.08 0.08 86 1009.9
20260508131432 47 213 2.0 3.0 0.00 0.08 0.08 87 1009.9
20260508130929 46 211 2.0 2.0 0.00 0.08 0.08 85 1009.9
20260508130426 46 210 0.0 0.0 0.00 0.08 0.08 91 1010.1
20260508125922 46 159 1.0 1.0 0.00 0.08 0.08 90 1009.9
20260508125418 45 199 0.0 1.0 0.00 0.08 0.08 95 1009.8
20260508124916 43 263 2.0 2.0 0.00 0.08 0.08 96 1009.7
20260508124413 43 181 1.0 1.0 0.00 0.08 0.08 97 1009.7
20260508123911 42 138 0.0 1.0 0.00 0.08 0.08 98 1009.9
20260508123410 42 178 1.0 1.0 0.00 0.08 0.08 99 1009.9
20260508122905 42 189 1.0 1.0 0.00 0.08 0.08 99 1009.8
20260508122403 41 173 2.0 2.0 0.00 0.08 0.08 99 1009.8
20260508121900 41 173 2.0 2.0 0.00 0.08 0.08 99 1009.5
20260508121358 41 172 1.0 2.0 0.00 0.08 0.08 99 1009.6
20260508120855 41 153 0.0 0.0 0.00 0.08 0.08 99 1009.6
20260508120353 40 151 1.0 1.0 0.00 0.08 0.08 99 1009.9
20260508115850 40 160 1.0 1.0 0.00 0.08 0.08 99 1009.8
20260508115348 39 154 0.0 1.0 0.00 0.08 0.08 99 1009.7
20260508114844 39 158 0.0 0.0 0.00 0.08 0.08 99 1009.9
20260508114341 39 159 0.0 0.0 0.00 0.08 0.08 99 1009.9
20260508113838 38 126 1.0 1.0 0.00 0.08 0.08 99 1009.6
20260508113336 38 329 1.0 1.0 0.00 0.08 0.08 99 1009.8
20260508112832 38 186 0.0 1.0 0.00 0.08 0.08 99 1009.9
20260508112329 38 186 1.0 1.0 0.00 0.08 0.08 99 1009.9
20260508111826 38 186 2.0 2.0 0.00 0.08 0.08 99 1009.8
20260508111323 38 186 0.0 1.0 0.00 0.08 0.08 99 1009.7
20260508110820 38 186 0.0 0.0 0.00 0.08 0.08 99 1009.4
20260508110318 37 186 1.0 2.0 0.00 0.08 0.08 99 1009.6
20260508105817 37 186 1.0 1.0 0.00 0.08 0.08 99 1009.5
20260508105314 37 186 0.0 1.0 0.00 0.08 0.08 99 1009.7
20260508104811 37 186 0.0 0.0 0.00 0.08 0.08 99 1009.5
20260508104308 38 186 0.0 0.0 0.00 0.08 0.08 99 1009.4
20260508103805 38 186 0.0 0.0 0.00 0.08 0.08 99 1009.2
20260508103302 37 186 0.0 0.0 0.00 0.08 0.08 99 1009.5
20260508102800 37 186 1.0 1.0 0.00 0.08 0.08 99 1009.3
20260508102258 37 186 0.0 1.0 0.07 0.08 0.08 99 1009.4
20260508101755 37 186 0.0 1.0 0.07 0.08 0.08 99 1009.2
20260508101252 37 186 1.0 1.0 0.00 0.07 0.07 99 1009.4
20260508100749 37 186 0.0 1.0 0.00 0.07 0.07 99 1009.3
20260508100248 37 185 0.0 0.0 0.00 0.07 0.07 99 1009.1
20260508095743 37 185 0.0 0.0 0.00 0.07 0.07 99 1009.3
20260508095241 37 185 0.0 0.0 0.00 0.07 0.07 99 1009.2
20260508094737 37 185 1.0 1.0 0.00 0.07 0.07 99 1009.1
20260508094235 37 185 1.0 1.0 0.00 0.07 0.07 99 1009.1
20260508093732 36 185 1.0 2.0 0.00 0.07 0.07 99 1009.0
20260508093229 36 185 0.0 0.0 0.00 0.07 0.07 99 1008.7
20260508092726 36 185 0.0 0.0 0.00 0.07 0.07 99 1008.8
20260508092224 36 185 0.0 0.0 0.00 0.07 0.07 99 1009.0
20260508091722 36 185 0.0 0.0 0.00 0.07 0.07 99 1008.7
20260508091219 37 185 0.0 0.0 0.00 0.07 0.07 99 1008.6
20260508090717 37 185 0.0 0.0 0.00 0.07 0.07 99 1008.7
20260508090214 38 185 0.0 0.0 0.00 0.07 0.07 99 1008.7
20260508085710 38 185 0.0 1.0 0.00 0.07 0.07 99 1009.0
20260508085207 38 185 0.0 0.0 0.00 0.07 0.07 99 1009.0
20260508084703 38 185 0.0 1.0 0.00 0.07 0.07 99 1009.0
20260508084201 38 185 0.0 1.0 0.00 0.07 0.07 99 1008.9
20260508083658 37 185 0.0 0.0 0.00 0.07 0.07 99 1008.8
20260508083155 37 185 0.0 0.0 0.00 0.07 0.07 99 1008.6
20260508082650 37 185 0.0 0.0 0.00 0.07 0.07 99 1008.7
20260508082148 37 185 0.0 0.0 0.00 0.07 0.07 99 1008.7
20260508081645 37 185 1.0 1.0 0.00 0.07 0.07 99 1008.5
20260508081141 38 185 0.0 1.0 0.00 0.07 0.07 99 1008.6
20260508080638 38 185 0.0 0.0 0.00 0.07 0.07 99 1008.5
20260508080136 38 185 0.0 0.0 0.00 0.07 0.07 99 1008.7
20260508075627 38 186 0.0 0.0 0.00 0.07 0.07 99 1008.5
20260508075124 38 186 0.0 0.0 0.00 0.07 0.07 99 1008.6
20260508074622 38 185 0.0 0.0 0.00 0.07 0.07 99 1008.6
20260508074119 38 185 0.0 0.0 0.00 0.07 0.07 99 1008.4
20260508073616 39 185 0.0 0.0 0.00 0.07 0.07 99 1008.4
20260508073114 39 186 0.0 0.0 0.00 0.07 0.07 99 1008.5
20260508072609 39 185 0.0 0.0 0.00 0.07 0.07 99 1008.3
20260508072106 40 186 0.0 0.0 0.00 0.07 0.07 99 1008.4
20260508071604 40 186 0.0 0.0 0.00 0.07 0.07 99 1008.6
20260508071103 41 186 0.0 0.0 0.00 0.07 0.07 99 1008.5
20260508070559 41 186 0.0 0.0 0.00 0.07 0.07 99 1008.4
20260508070058 41 186 0.0 1.0 0.00 0.07 0.07 99 1008.7
20260508065555 41 186 1.0 1.0 0.00 0.07 0.07 99 1008.2
20260508065053 41 186 1.0 1.0 0.00 0.07 0.07 99 1008.3
20260508064550 41 185 0.0 0.0 0.00 0.07 0.07 99 1008.3
20260508064048 41 185 1.0 1.0 0.00 0.07 0.07 99 1008.6
20260508063545 41 185 1.0 1.0 0.00 0.07 0.07 99 1008.4
20260508063043 41 177 1.0 1.0 0.00 0.07 0.07 99 1008.4
20260508062540 41 177 0.0 0.0 0.00 0.07 0.07 99 1008.6
20260508062037 41 177 0.0 0.0 0.00 0.07 0.07 99 1008.9
20260508061535 41 178 1.0 1.0 0.07 0.07 0.07 99 1008.9
20260508061031 41 170 1.0 1.0 0.07 0.07 0.07 99 1009.0
20260508060528 41 171 1.0 1.0 0.00 0.06 0.06 99 1008.9
20260508060026 41 170 0.0 0.0 0.00 0.06 0.06 98 1009.0
20260508055521 41 170 0.0 1.0 0.00 0.06 0.06 98 1008.8
20260508055018 41 170 0.0 1.0 0.00 0.06 0.06 98 1008.8
20260508054515 41 170 0.0 0.0 0.00 0.06 0.06 97 1008.6
20260508054012 41 170 0.0 0.0 0.00 0.06 0.06 97 1009.0
20260508053509 41 170 0.0 0.0 0.00 0.06 0.06 96 1008.9
20260508053007 41 170 0.0 0.0 0.00 0.06 0.06 96 1009.1
20260508052504 41 170 0.0 0.0 0.00 0.06 0.06 95 1009.1
20260508052000 41 170 0.0 0.0 0.00 0.06 0.06 95 1009.2
20260508051456 41 170 0.0 0.0 0.12 0.06 0.06 94 1009.3
20260508050952 42 172 2.0 2.0 0.24 0.06 0.06 93 1009.4
20260508050449 42 169 1.0 1.0 0.17 0.04 0.04 93 1009.5
20260508045945 43 167 1.0 1.0 0.19 0.03 0.03 91 1009.0
20260508045442 44 168 1.0 3.0 0.07 0.01 0.01 88 1009.4
20260508044940 44 231 2.0 3.0 0.00 0.00 0.00 85 1009.1
20260508044437 45 284 3.0 4.0 0.00 0.00 0.00 83 1008.8
20260508043932 45 201 1.0 1.0 0.00 0.00 0.00 78 1008.2
20260508043430 44 200 0.0 1.0 0.00 0.00 0.00 77 1007.8
20260508042926 45 200 0.0 0.0 0.00 0.00 0.00 78 1007.6
20260508042424 45 200 0.0 1.0 0.00 0.00 0.00 78 1007.4
20260508041920 45 200 1.0 1.0 0.00 0.00 0.00 79 1007.3
20260508041417 45 200 0.0 1.0 0.00 0.00 0.00 79 1007.3
20260508040913 45 200 0.0 1.0 0.00 0.00 0.00 79 1006.8
20260508040410 45 200 0.0 0.0 0.00 0.00 0.00 80 1006.8
20260508035908 45 200 0.0 0.0 0.00 0.01 0.01 78 1006.9
20260508035400 45 201 0.0 0.0 0.00 0.01 0.01 78 1007.0
20260508034856 45 201 1.0 1.0 0.00 0.01 0.01 80 1007.2
20260508034353 45 201 0.0 1.0 0.00 0.01 0.01 78 1006.9
20260508033850 45 201 1.0 1.0 0.00 0.01 0.01 77 1006.9
20260508033349 46 201 1.0 1.0 0.00 0.01 0.01 72 1006.9
20260508032846 47 201 1.0 1.0 0.00 0.01 0.01 71 1006.9
20260508032343 47 89 1.0 2.0 0.00 0.01 0.01 65 1006.9
20260508031840 47 88 0.0 0.0 0.00 0.01 0.01 65 1006.8
20260508031337 46 124 0.0 0.0 0.00 0.01 0.01 66 1006.8
20260508030833 46 124 0.0 0.0 0.00 0.01 0.01 69 1006.9
20260508030330 46 124 0.0 0.0 0.00 0.01 0.01 71 1007.0
20260508025827 47 124 1.0 1.0 0.00 0.01 0.01 69 1007.0
20260508025324 48 124 0.0 0.0 0.00 0.01 0.01 65 1007.0
20260508024821 47 127 0.0 1.0 0.00 0.01 0.01 64 1007.3
20260508024317 47 127 0.0 0.0 0.00 0.01 0.01 64 1007.2
20260508023814 47 54 0.0 0.0 0.00 0.01 0.01 62 1007.2
20260508023311 47 162 0.0 0.0 0.00 0.01 0.01 64 1007.2
20260508022807 47 162 0.0 0.0 0.00 0.01 0.01 62 1007.0
20260508022306 47 162 0.0 0.0 0.00 0.01 0.01 62 1007.2
20260508021801 47 162 0.0 0.0 0.00 0.01 0.01 63 1006.9
20260508021256 47 162 0.0 0.0 0.00 0.01 0.01 64 1007.2
20260508020753 47 162 1.0 1.0 0.00 0.01 0.01 61 1007.4
20260508020251 46 162 0.0 1.0 0.00 0.01 0.01 63 1007.0
20260508015747 46 163 0.0 0.0 0.00 0.01 0.01 64 1007.2
20260508015245 47 163 0.0 0.0 0.00 0.01 0.01 63 1007.3
20260508014741 47 162 0.0 0.0 0.00 0.01 0.01 63 1007.0
20260508014238 47 162 0.0 0.0 0.00 0.01 0.01 61 1007.2
20260508013734 47 162 0.0 0.0 0.00 0.01 0.01 61 1006.9
20260508013231 47 162 0.0 0.0 0.00 0.01 0.01 62 1007.2
20260508012728 47 162 0.0 0.0 0.00 0.01 0.01 62 1007.3
20260508012225 47 162 0.0 0.0 0.00 0.01 0.01 62 1007.2
20260508011723 47 162 0.0 0.0 0.00 0.01 0.01 62 1007.2
20260508011220 47 162 0.0 0.0 0.00 0.01 0.01 60 1007.0
20260508010717 48 162 0.0 0.0 0.00 0.01 0.01 61 1006.9
20260508010215 48 162 0.0 0.0 0.00 0.01 0.01 59 1006.9
20260508005712 48 162 0.0 0.0 0.00 0.01 0.01 59 1006.9
20260508005208 48 162 0.0 1.0 0.00 0.01 0.01 60 1006.8
20260508004704 48 162 0.0 1.0 0.00 0.01 0.01 58 1006.5
20260508004200 48 162 0.0 1.0 0.00 0.01 0.01 59 1006.4
20260508003657 48 162 0.0 0.0 0.00 0.01 0.01 58 1006.4
20260508003155 48 162 1.0 1.0 0.00 0.01 0.01 60 1006.5
20260508002651 48 162 1.0 1.0 0.00 0.01 0.01 59 1006.4
20260508002149 49 162 0.0 1.0 0.00 0.01 0.01 56 1006.2
20260508001644 49 162 0.0 0.0 0.00 0.01 0.01 56 1006.4
20260508001140 49 162 0.0 0.0 0.00 0.01 0.01 56 1006.3
20260508000636 49 162 0.0 0.0 0.00 0.01 0.01 55 1006.4
20260508000134 49 162 0.0 0.0 0.00 0.01 0.01 57 1006.3
20260507235630 50 162 0.0 0.0 0.00 0.01 0.01 57 1006.1
20260507235128 51 162 0.0 0.0 0.00 0.01 0.01 53 1006.0
20260507234624 51 162 1.0 1.0 0.00 0.01 0.01 53 1006.1
20260507234121 51 162 0.0 0.0 0.00 0.01 0.01 53 1006.1
20260507233618 52 162 0.0 0.0 0.00 0.01 0.01 52 1005.8
20260507233116 52 189 0.0 1.0 0.00 0.01 0.01 52 1006.0
20260507232613 52 189 0.0 0.0 0.00 0.01 0.01 51 1006.2
20260507232110 53 189 0.0 1.0 0.00 0.01 0.01 49 1006.0
20260507231606 53 188 0.0 1.0 0.00 0.01 0.01 48 1006.0
20260507231103 53 202 0.0 0.0 0.00 0.01 0.01 49 1006.0
20260507230559 53 203 0.0 0.0 0.00 0.01 0.01 49 1006.0
20260507230056 53 203 1.0 1.0 0.00 0.01 0.01 55 1006.0
20260507225551 53 169 0.0 1.0 0.00 0.01 0.01 48 1006.0
20260507225048 53 173 0.0 1.0 0.00 0.01 0.01 49 1005.9
20260507224543 53 194 1.0 1.0 0.00 0.01 0.01 48 1006.0
20260507224040 54 73 0.0 0.0 0.00 0.01 0.01 46 1005.9
20260507223536 54 175 0.0 0.0 0.00 0.01 0.01 49 1005.8
20260507223034 54 92 1.0 2.0 0.00 0.01 0.01 48 1005.6
20260507222531 54 87 1.0 1.0 0.00 0.01 0.01 46 1005.6
20260507222027 54 104 1.0 1.0 0.00 0.01 0.01 49 1005.9
20260507221523 55 62 1.0 2.0 0.00 0.01 0.01 47 1005.9
20260507221021 55 114 1.0 1.0 0.00 0.01 0.01 46 1005.8
20260507220518 55 66 3.0 3.0 0.00 0.01 0.01 45 1005.7
20260507220015 55 183 1.0 1.0 0.00 0.01 0.01 46 1005.7
20260507215511 54 125 1.0 1.0 0.00 0.01 0.01 48 1005.9
20260507215009 55 201 0.0 1.0 0.00 0.01 0.01 47 1005.9
20260507214506 56 175 1.0 1.0 0.00 0.01 0.01 45 1005.7
20260507214001 56 227 3.0 3.0 0.00 0.01 0.01 43 1006.0
20260507213458 55 209 2.0 2.0 0.00 0.01 0.01 46 1005.7
20260507212955 55 177 3.0 4.0 0.00 0.01 0.01 47 1006.0
20260507212451 55 183 2.0 2.0 0.00 0.01 0.01 47 1006.0
20260507211948 55 184 1.0 2.0 0.00 0.01 0.01 45 1005.8
20260507211444 55 132 2.0 2.0 0.00 0.01 0.01 47 1006.0
20260507210941 55 236 2.0 2.0 0.00 0.01 0.01 46 1005.9
20260507210438 55 85 3.0 4.0 0.00 0.01 0.01 44 1006.0
20260507205934 56 142 1.0 1.0 0.00 0.01 0.01 44 1005.8
20260507205432 58 219 3.0 3.0 0.00 0.01 0.01 42 1005.6
20260507204927 58 199 2.0 3.0 0.00 0.01 0.01 40 1005.7
20260507204419 56 223 4.0 6.0 0.00 0.01 0.01 41 1005.6
20260507203916 56 164 1.0 2.0 0.00 0.01 0.01 45 1005.5
20260507203414 58 320 3.0 3.0 0.00 0.01 0.01 40 1005.7
20260507202910 60 209 4.0 7.0 0.00 0.01 0.01 40 1005.7
20260507202401 57 184 2.0 3.0 0.00 0.01 0.01 44 1005.9
20260507201856 55 95 1.0 1.0 0.00 0.01 0.01 46 1005.6
20260507201352 54 32 4.0 4.0 0.00 0.01 0.01 45 1006.0
20260507200849 55 193 1.0 1.0 0.00 0.01 0.01 45 1005.9
20260507200345 55 136 2.0 2.0 0.00 0.01 0.01 43 1005.9
20260507195841 56 231 1.0 2.0 0.00 0.01 0.01 43 1005.7
20260507195338 56 265 3.0 6.0 0.00 0.01 0.01 45 1005.7
20260507194836 58 204 1.0 2.0 0.00 0.01 0.01 44 1005.8
20260507194332 59 170 3.0 4.0 0.00 0.01 0.01 39 1006.0
20260507193828 59 14 3.0 4.0 0.00 0.01 0.01 39 1006.1
20260507193326 59 160 1.0 1.0 0.00 0.01 0.01 41 1006.2
20260507192821 58 219 1.0 1.0 0.00 0.01 0.01 40 1006.1
20260507192318 59 94 2.0 2.0 0.00 0.01 0.01 41 1005.9
20260507191815 57 55 2.0 3.0 0.00 0.01 0.01 43 1006.0
20260507191311 57 269 4.0 4.0 0.00 0.01 0.01 43 1006.0
20260507190808 55 206 0.0 0.0 0.00 0.01 0.01 47 1006.3
20260507190306 54 177 1.0 2.0 0.00 0.01 0.01 48 1006.4
20260507185804 54 244 3.0 3.0 0.00 0.01 0.01 47 1006.5
20260507185255 55 26 2.0 3.0 0.00 0.01 0.01 46 1006.7
20260507184752 55 222 3.0 3.0 0.00 0.01 0.01 44 1006.9
20260507184250 55 201 0.0 1.0 0.00 0.01 0.01 43 1006.7
20260507183747 56 238 2.0 3.0 0.00 0.01 0.01 44 1006.7
20260507183243 58 250 6.0 8.0 0.00 0.01 0.01 41 1006.6
20260507182741 59 205 3.0 4.0 0.00 0.01 0.01 42 1007.0
20260507182236 59 230 5.0 7.0 0.00 0.01 0.01 40 1006.9
20260507181734 55 213 3.0 4.0 0.00 0.01 0.01 45 1006.8
20260507181230 54 80 1.0 2.0 0.00 0.01 0.01 43 1006.7
20260507180726 55 53 1.0 2.0 0.00 0.01 0.01 46 1006.9
20260507180223 57 168 5.0 6.0 0.00 0.01 0.01 41 1007.2
20260507175719 58 228 3.0 3.0 0.00 0.01 0.01 42 1007.2
20260507175216 57 88 1.0 1.0 0.00 0.01 0.01 45 1007.0
20260507174714 58 5 1.0 2.0 0.00 0.01 0.01 45 1007.0
20260507174211 58 302 1.0 1.0 0.00 0.01 0.01 44 1006.9
20260507173709 58 224 2.0 3.0 0.00 0.01 0.01 41 1007.3
20260507173205 57 116 2.0 3.0 0.00 0.01 0.01 44 1007.2
20260507172702 56 128 2.0 2.0 0.00 0.01 0.01 46 1007.5
20260507172159 58 221 2.0 4.0 0.00 0.01 0.01 41 1007.4
20260507171658 55 82 0.0 1.0 0.00 0.01 0.01 47 1007.6
20260507171156 57 239 6.0 8.0 0.00 0.01 0.01 42 1007.4
20260507170653 56 132 1.0 2.0 0.00 0.01 0.01 44 1007.6
20260507170150 57 216 6.0 9.0 0.00 0.01 0.01 44 1007.7
20260507165646 55 215 2.0 4.0 0.00 0.01 0.01 50 1007.6
20260507165142 57 15 2.0 3.0 0.00 0.01 0.01 46 1007.9
20260507164638 57 229 2.0 3.0 0.00 0.01 0.01 51 1007.8
20260507164135 56 148 3.0 3.0 0.00 0.01 0.01 42 1007.9
20260507163627 54 201 2.0 3.0 0.00 0.01 0.01 49 1007.9
20260507163125 56 74 2.0 2.0 0.00 0.01 0.01 45 1008.1
20260507162620 55 115 3.0 6.0 0.00 0.01 0.01 47 1008.2
20260507162117 56 236 5.0 7.0 0.00 0.01 0.01 45 1008.0